カタログに戻る

STARLINK-35224

運用中通信SSO
NORAD 65811·PAYLOAD·🇺🇸 United States

打ち上げ Sep 26, 2025 から Vandenberg Space Force Base

Loading…

次のパス (今後24時間)

TLE

最新Source: CelesTrak SupGP

元期: Sep 14, 2026, 21:13 UTC

1 65811C 25218W   26257.88451389  .00027669  00000+0  85923-3 0  2573
2 65811  97.2843 115.3043 0001350  93.9036 156.0794 15.33413307    15

AllMySatでSTARLINK-35224をリアルタイム追跡

Download on the App Store